Temperature
16 16 16 16 16 17 18 20 21 21 21 20 20 20 19 17 17 15 13 12 13 13 14 13 14 13 13 13 13 13 14 14 14 14 14 14 14 14 14 14 14 14 14 14 14 14 14 14 14
15 15 16 16 16 17 18 20 20 20 20 19 19 19 18 16 14 13 12 12 12 13 13 13 13 13 13 13 13 13 13 13 13 13 13 13 13 13 14 13 13 14 14 14 14 14 14 14 14
15 15 16 17 17 18 19 20 19 19 19 19 18 17 16 14 13 12 12 12 12 12 12 13 13 13 13 13 13 13 13 13 13 13 13 13 13 13 13 13 13 13 13 13 14 14 14 14 14
14 15 16 16 17 18 19 19 19 19 18 18 18 16 14 12 12 12 12 12 12 12 12 12 12 12 12 12 12 12 13 13 13 13 13 13 13 13 13 13 13 13 13 13 13 13 13 13 14
14 16 15 16 17 18 19 19 19 19 18 18 18 16 12 11 12 12 12 11 11 11 12 12 12 12 12 12 12 12 12 12 12 12 12 12 12 13 13 13 13 13 13 13 13 13 13 13 13
15 16 15 16 17 18 18 19 19 19 18 18 17 16 11 11 11 11 11 11 11 11 11 11 11 11 12 12 12 12 12 12 12 12 12 12 12 12 12 12 12 13 13 13 13 13 13 13 13
15 15 15 16 17 17 18 19 19 18 17 17 16 15 11 10 11 11 10 10 10 10 11 11 11 11 11 11 11 12 12 12 12 12 12 12 12 12 12 12 12 12 12 12 12 12 13 13 13
15 15 16 16 17 17 17 18 17 17 16 15 15 14 11 10 10 10 10 10 10 10 10 10 11 11 11 11 11 11 12 12 12 12 12 12 12 12 12 12 12 12 12 12 12 12 12 12 12
14 14 14 16 17 16 17 16 15 15 14 14 13 12 11 11 10 10 9 9 9 9 9 10 10 10 10 11 11 11 11 11 11 11 12 12 12 12 12 12 12 12 12 12 12 12 12 12 12
14 13 14 15 16 16 16 15 15 14 13 13 12 11 10 10 10 9 9 9 9 9 9 9 9 10 10 10 10 11 11 11 11 11 11 11 11 11 11 11 11 11 11 11 11 11 11 11 11
14 13 14 15 15 15 15 14 14 14 13 13 12 10 10 9 9 9 8 8 8 8 8 9 9 9 10 10 10 10 10 10 10 11 11 11 11 11 11 11 11 11 11 11 11 11 11 11 11
13 13 14 14 13 13 13 13 13 13 12 12 12 11 10 9 9 8 8 8 8 8 8 8 8 9 9 9 9 10 10 10 10 10 10 10 10 10 10 10 11 11 10 10 10 10 10 10 10
12 12 13 12 12 12 12 12 12 12 11 11 11 10 9 9 8 8 8 7 7 7 7 7 8 8 8 9 9 9 9 9 10 10 10 10 10 10 10 10 10 10 10 10 10 10 10 10 10
12 12 12 12 11 11 11 11 11 11 10 10 10 9 9 8 8 7 7 7 7 7 7 7 7 7 8 8 8 9 9 9 9 9 9 9 9 9 9 9 9 10 9 9 10 9 9 9 9
11 11 11 11 11 11 10 9 9 10 10 10 9 8 8 8 7 7 7 7 7 6 6 7 7 7 7 7 7 8 8 8 8 8 9 9 9 9 9 9 9 9 9 9 9 9 9 9 9
11 10 10 11 11 10 10 9 10 10 9 9 9 8 7 7 7 6 6 6 6 6 6 6 6 6 6 7 7 7 7 8 8 8 8 8 8 8 8 9 9 9 9 8 8 8 8 8 8
10 9 10 10 10 10 9 9 9 9 9 9 8 8 7 6 6 6 6 5 6 6 6 6 6 6 6 6 6 6 7 7 7 7 7 8 8 8 8 8 8 8 8 8 8 8 8 8 8
9 10 11 10 10 9 8 8 8 8 8 8 8 7 6 6 5 5 5 5 5 5 5 5 5 5 5 5 6 6 6 6 6 7 7 7 7 7 7 7 7 7 7 7 7 7 7 7 7
10 10 9 10 10 9 8 8 8 8 7 7 7 6 6 5 5 5 5 4 4 5 5 5 5 5 5 5 5 5 5 5 6 6 6 6 6 7 7 7 7 7 7 7 7 7 7 7 7
9 8 8 9 9 8 7 7 7 7 7 6 6 6 5 4 4 4 4 4 4 4 4 4 4 4 4 4 4 4 4 5 5 5 5 6 6 6 6 6 6 6 6 6 6 6 6 6 6
8 7 7 7 7 7 6 6 7 7 6 6 6 5 4 4 3 3 3 3 3 3 3 3 3 3 3 3 3 3 4 4 4 4 5 5 5 5 5 5 6 6 5 5 5 5 5 5 5
7 7 7 7 6 5 6 5 6 6 5 5 4 4 3 3 2 2 2 2 2 2 2 3 3 3 3 3 3 3 3 3 3 4 4 4 4 4 4 5 5 5 5 5 5 4 4 5 5
6 6 6 6 6 5 6 5 5 5 4 3 3 3 3 2 2 1 1 1 1 1 1 2 2 2 2 2 2 2 2 3 3 3 3 3 4 4 4 4 4 4 4 4 4 4 4 4 4
6 6 6 5 5 4 5 5 5 4 4 3 2 2 2 1 1 1 0 0 0 0 0 1 1 1 1 1 2 2 2 2 2 2 3 3 3 3 3 3 3 3 4 4 4 3 3 3 3
5 4 4 4 3 4 5 4 4 3 3 2 2 1 1 1 0 0 -0 -0 -1 -1 -0 -0 0 0 1 1 1 1 1 1 2 2 2 2 2 2 3 3 3 3 3 3 3 3 3 3 3
4 4 4 4 4 5 3 3 3 2 1 1 1 1 0 -0 -0 -1 -1 -1 -1 -1 -1 -1 -0 -0 -0 0 0 0 1 1 1 1 1 1 1 2 2 2 2 2 2 2 2 2 2 2 2
4 4 4 3 4 3 4 3 3 2 1 0 0 -0 -1 -1 -1 -2 -2 -2 -2 -2 -2 -1 -1 -1 -1 -1 -0 -0 0 0 0 0 0 1 1 1 1 1 2 2 2 2 2 2 2 2 2
3 3 3 2 3 3 4 4 3 1 -0 -1 -1 -1 -2 -2 -2 -2 -3 -3 -3 -3 -2 -2 -2 -2 -1 -1 -1 -1 -1 -0 -0 -0 -0 -0 0 0 0 1 1 1 1 1 1 1 1 1 1
2 2 2 2 3 3 3 3 1 0 -0 -1 -2 -2 -2 -3 -3 -3 -3 -3 -3 -3 -3 -3 -2 -2 -2 -2 -2 -2 -1 -1 -1 -1 -1 -1 -1 -1 -0 -0 -0 0 0 0 0 0 0 0 0
1 2 1 1 1 2 2 1 -1 -1 -2 -2 -2 -2 -3 -3 -4 -4 -4 -4 -4 -4 -4 -4 -3 -3 -3 -3 -2 -2 -2 -2 -2 -2 -1 -1 -1 -1 -1 -1 -1 -1 -0 -0 -0 -0 -0 -0 -1
Wind_Speed
10 10 6 3 3 5 9 6 3 1 1 3 5 5 4 4 4 6 3 4 7 8 9 8 9 10 10 10 11 11 11 12 11 12 12 12 13 13 13 14 14 14 14 15 15 15 15 15 15
9 5 4 3 5 7 7 7 4 1 4 5 5 3 3 5 7 7 4 5 6 8 9 8 10 11 11 11 11 11 11 12 12 12 11 12 13 13 13 14 14 14 14 14 14 14 14 14 14
8 6 3 4 5 7 4 2 4 4 6 4 3 4 4 5 6 4 4 5 6 8 8 9 11 11 11 11 11 11 11 11 12 12 12 12 12 13 13 13 14 14 14 14 14 14 14 13 13
4 3 4 5 9 8 5 1 4 4 4 3 3 4 5 6 4 5 6 5 7 7 9 10 11 11 11 11 11 11 11 11 12 12 11 12 12 12 12 13 13 13 13 13 13 13 13 13 12
4 3 5 7 10 8 3 1 2 3 4 4 3 3 6 5 8 8 6 6 7 7 9 9 10 11 10 10 11 12 11 11 11 11 11 11 12 13 12 12 13 12 12 12 12 12 13 12 12
4 4 6 9 9 7 4 2 2 3 2 3 3 3 6 5 7 6 5 6 7 7 9 9 9 10 10 10 11 12 12 11 10 10 11 11 12 12 12 12 12 12 12 12 12 12 12 12 11
4 4 7 8 8 7 5 2 2 2 2 2 2 3 6 5 6 5 5 6 7 8 8 8 8 9 9 10 10 10 11 10 10 10 11 11 11 12 12 12 11 11 11 11 11 11 11 11 11
4 4 7 8 9 6 2 1 1 1 2 3 2 2 5 6 7 6 6 6 6 7 7 7 7 7 8 8 9 9 10 10 10 10 10 11 11 11 11 11 10 10 10 10 11 11 11 10 10
4 5 7 6 6 2 2 1 2 3 2 3 5 6 7 11 8 7 5 5 5 6 5 6 6 7 6 7 8 8 9 10 9 9 9 9 9 10 10 10 10 10 10 10 10 10 9 9 8
4 5 6 4 4 1 1 1 2 3 3 2 5 8 10 9 8 7 6 6 5 5 4 4 5 6 6 6 6 7 7 8 7 7 7 7 8 9 9 10 10 10 10 9 9 8 8 7 7
4 5 4 4 4 3 1 0 1 2 3 2 4 9 9 8 7 7 6 5 5 5 4 4 4 6 6 5 5 5 6 6 6 6 6 6 7 7 8 8 8 8 8 7 6 7 7 7 7
5 5 5 4 3 2 2 1 2 3 1 3 4 7 9 9 8 7 6 6 6 5 4 4 4 5 6 6 5 5 5 5 5 5 5 5 5 5 6 6 6 6 5 5 6 5 6 6 7
8 6 5 2 1 2 3 3 3 3 1 3 6 7 8 7 6 5 5 5 5 5 4 4 4 4 5 5 4 5 5 5 6 5 5 5 5 4 4 5 5 5 5 5 5 5 5 6 6
3 4 4 4 4 3 4 5 4 4 3 3 5 6 6 6 6 6 5 5 5 5 5 4 4 5 5 4 4 4 5 5 5 5 5 5 5 4 4 5 5 5 5 4 4 5 4 5 5
2 4 6 6 5 4 3 6 8 5 4 4 5 5 5 5 5 5 5 5 5 5 5 5 4 5 4 4 4 4 5 5 5 4 5 5 5 5 4 4 4 4 5 5 5 5 5 4 5
4 5 6 5 6 4 4 7 4 5 7 6 5 5 5 5 4 3 4 4 4 5 5 5 4 4 4 4 3 4 5 5 4 4 4 4 5 5 5 4 3 4 5 4 3 3 3 3 3
5 6 7 5 6 5 6 6 2 3 5 5 4 4 4 4 3 3 3 4 4 5 6 5 4 4 4 3 3 4 4 4 4 4 4 4 4 4 5 4 3 4 4 3 3 3 2 2 2
4 6 6 5 5 6 7 7 2 2 4 4 3 3 4 4 3 3 3 3 4 4 5 5 4 4 4 3 3 2 3 3 4 4 4 4 4 4 4 4 3 3 3 2 2 2 2 2 1
6 6 7 5 1 4 8 8 6 4 4 4 3 3 3 2 3 3 3 3 3 4 4 4 5 4 3 2 2 2 1 1 2 3 3 3 4 4 4 4 3 2 2 2 2 2 3 2 1
6 7 7 4 0 2 5 7 6 5 5 4 3 3 3 2 3 3 3 3 2 2 2 3 4 4 4 2 2 1 1 1 2 2 3 3 3 3 4 4 3 2 2 2 2 2 1 1 1
6 6 6 5 3 3 3 6 6 4 4 4 3 3 3 3 3 3 3 2 2 2 1 1 1 2 4 3 2 1 1 1 1 1 1 2 3 3 4 4 4 3 3 2 2 3 2 2 1
5 3 5 4 3 4 4 5 4 4 4 4 3 3 3 3 3 3 2 2 1 1 1 0 1 1 2 3 3 3 2 2 2 2 1 2 3 3 4 4 4 4 3 3 2 2 1 3 2
2 4 3 3 4 4 4 4 5 3 3 3 2 3 2 3 3 3 2 2 2 2 1 0 0 0 1 2 3 3 3 2 1 1 2 2 2 3 4 5 4 4 3 3 3 2 2 2 3
1 2 3 3 2 5 7 6 4 2 3 3 3 3 3 3 3 4 3 3 2 2 2 1 0 0 1 1 3 4 3 3 3 3 3 3 2 2 4 5 4 4 3 4 4 4 4 3 3
1 0 1 1 3 6 3 5 4 2 4 4 4 4 3 3 4 4 4 3 3 3 2 2 1 1 1 2 3 3 4 4 4 4 4 3 3 2 3 4 4 4 5 5 5 5 4 4 4
3 2 3 3 4 3 2 5 2 5 6 6 6 5 4 4 4 4 4 3 3 3 3 3 2 2 2 2 3 3 3 3 3 4 3 4 3 4 4 5 5 5 6 6 5 5 5 4 5
2 4 2 2 4 4 4 3 2 4 5 5 5 5 5 4 4 4 4 4 4 3 3 3 3 3 2 2 3 3 3 3 3 3 3 3 3 4 5 5 5 5 6 6 5 5 5 5 6
2 1 0 2 3 5 5 4 3 2 1 2 3 3 4 4 4 4 4 4 4 3 4 4 3 3 3 2 2 3 3 3 3 3 4 4 4 4 4 5 5 5 6 6 6 5 5 6 6
4 3 3 3 4 3 4 3 1 2 3 3 2 3 3 3 3 3 3 3 3 4 4 4 4 4 4 4 3 3 3 3 3 4 4 4 4 4 5 5 5 6 6 6 6 7 7 7 7
1 3 4 3 4 4 4 4 2 5 4 4 3 3 3 3 2 3 3 3 4 4 4 4 4 4 4 4 4 4 3 3 3 4 4 4 4 4 5 5 6 7 6 6 7 8 8 8 9
Wind_Direction
287 260 242 245 236 232 237 238 235 207 65 46 31 22 36 31 33 111 136 72 85 106 116 116 108 103 97 95 92 90 88 87 88 87 86 85 85 83 81 80 81 81 80 80 78 78 77 75 74
278 255 237 236 235 232 232 218 207 166 90 75 48 21 49 69 69 100 102 77 91 102 112 113 108 103 99 94 93 93 91 88 87 88 86 85 84 83 83 81 80 80 79 80 79 78 78 76 74
263 249 236 228 233 240 243 121 111 104 93 96 85 42 39 63 79 96 92 100 97 97 103 111 111 105 101 97 93 94 94 91 87 85 85 86 85 82 83 84 81 78 78 79 80 79 78 75 74
244 225 245 242 242 250 257 146 108 117 108 95 113 103 83 47 57 89 105 106 100 96 97 107 109 106 103 99 96 94 96 95 91 88 85 84 84 85 83 84 83 80 79 80 82 80 80 77 74
238 232 227 233 243 252 256 200 152 169 147 149 154 135 102 68 76 93 105 99 95 93 96 106 106 107 106 103 98 96 94 93 93 94 90 86 83 83 82 81 82 81 81 82 83 83 82 79 74
231 232 229 229 236 237 229 227 215 196 159 136 157 149 107 107 94 96 101 96 90 90 92 100 102 105 103 101 98 95 94 92 88 90 88 86 85 84 82 80 79 80 81 82 84 85 84 82 76
245 238 243 246 246 240 227 212 227 214 162 149 140 129 119 114 104 109 106 95 89 88 90 92 96 98 100 99 97 96 94 92 88 84 84 85 86 85 83 81 79 80 81 81 81 82 82 80 77
268 268 247 243 245 247 224 181 53 360 86 54 42 117 129 127 118 114 103 92 89 84 84 89 93 93 94 98 99 99 97 93 89 82 82 84 84 83 81 79 78 79 81 83 82 81 81 81 76
269 250 243 246 250 247 175 200 99 59 63 71 54 55 93 118 124 122 117 105 99 92 83 81 82 85 92 100 100 98 97 93 88 84 84 83 80 80 78 77 77 77 79 83 83 82 82 79 73
222 234 242 283 310 319 160 173 139 153 155 156 101 91 109 125 139 145 145 138 124 111 97 78 77 82 84 90 98 98 99 96 92 87 83 83 83 81 79 81 77 74 73 77 79 78 75 70 62
210 233 253 293 339 357 329 18 126 212 219 211 157 145 139 146 155 159 155 142 127 116 106 88 81 86 83 81 90 87 92 96 92 90 89 89 89 87 82 79 73 70 70 67 70 68 62 61 63
239 256 273 288 351 358 310 270 233 246 258 48 86 133 146 158 166 168 158 145 131 124 113 101 96 91 89 88 87 87 84 86 86 86 88 85 79 78 83 80 77 72 65 56 57 62 55 59 66
234 250 257 272 52 316 308 278 266 243 168 88 107 125 147 159 164 161 147 142 139 137 130 115 104 96 90 88 88 87 82 82 83 83 79 80 83 88 83 81 80 71 68 59 56 59 56 57 61
256 250 243 226 231 227 248 258 250 235 163 142 138 147 157 164 162 154 153 157 155 148 142 127 118 107 99 89 88 90 89 95 93 85 74 74 80 82 86 83 76 69 68 60 56 60 59 58 57
259 264 257 232 216 200 222 256 236 216 171 178 171 162 158 156 153 159 163 162 158 149 141 139 132 115 110 102 102 102 102 102 99 98 93 81 79 81 83 88 79 71 72 67 61 57 58 60 56
230 239 242 214 200 192 202 253 223 178 181 193 186 170 164 156 152 144 147 153 150 143 141 147 144 130 121 113 111 108 107 103 104 109 107 100 88 90 84 84 81 81 85 73 70 70 63 58 51
213 237 237 220 194 178 205 250 177 154 175 194 194 172 165 153 147 142 138 146 150 148 147 147 135 135 132 125 122 114 111 108 112 112 110 112 107 101 96 92 87 87 82 77 83 73 81 77 51
232 245 256 241 189 190 216 239 222 186 181 195 188 170 161 158 158 138 128 129 140 141 144 147 143 140 134 128 118 112 107 111 114 113 115 125 124 114 105 105 94 87 89 86 83 94 80 97 86
285 282 277 281 192 202 232 244 246 210 198 202 186 169 154 141 124 119 114 116 120 129 137 152 151 152 142 141 145 147 150 140 111 116 123 131 139 139 124 115 105 96 111 119 108 101 105 103 88
270 276 282 297 75 234 260 261 255 217 200 180 171 153 132 109 96 98 104 102 101 126 141 152 163 162 159 166 166 156 150 160 148 135 131 140 145 152 147 132 135 119 110 121 120 113 111 142 116
255 257 271 281 306 252 272 275 235 214 184 163 153 130 123 139 140 130 115 106 100 89 94 172 164 167 164 160 139 125 101 94 139 160 166 161 170 169 165 158 154 156 149 160 162 157 133 161 214
265 290 281 278 274 262 209 269 246 202 180 166 134 115 107 96 103 111 103 107 105 88 76 64 137 151 166 156 164 171 182 200 214 189 186 199 192 188 177 173 171 171 166 175 196 180 178 159 181
280 333 304 270 254 270 236 245 263 203 182 178 141 120 102 94 100 103 89 78 75 68 68 52 75 161 176 177 180 187 205 209 191 174 190 214 218 205 192 188 183 185 184 185 194 203 205 186 184
327 309 280 263 246 256 221 214 264 202 187 140 133 113 90 72 83 89 82 73 59 52 47 38 39 278 239 217 203 200 205 205 196 198 203 213 228 225 208 205 199 199 196 196 199 203 210 212 208
238 87 297 247 227 244 202 205 239 120 77 97 120 108 84 65 64 70 65 54 42 35 25 13 4 314 287 255 235 225 215 211 207 209 208 213 220 229 228 217 212 211 208 204 202 205 214 214 216
221 201 198 233 247 269 244 223 214 94 75 70 80 87 77 63 55 51 49 43 34 24 11 0 341 309 300 280 262 247 230 225 219 213 214 218 223 224 223 223 220 224 219 214 206 211 214 214 217
213 226 259 280 284 274 236 204 137 96 74 69 71 69 65 53 45 36 31 28 25 14 358 347 340 328 309 300 294 268 245 231 228 223 218 223 230 230 224 230 225 223 222 215 207 214 215 215 217
251 273 159 212 252 259 255 215 202 180 152 91 77 64 55 45 37 31 23 11 5 3 357 351 340 334 326 312 294 287 273 253 242 234 229 228 231 231 227 237 237 227 226 221 214 218 219 215 217
194 211 217 236 239 242 268 257 28 130 120 114 79 56 54 43 26 12 8 8 5 4 1 351 343 340 336 326 308 297 287 274 254 242 238 236 236 233 230 233 239 231 228 225 220 218 218 219 220
215 215 195 208 248 241 261 266 44 69 60 72 66 34 28 29 17 3 8 11 6 359 352 347 343 338 330 325 322 308 293 284 268 259 252 245 242 242 236 232 240 234 230 227 223 223 223 221 221
Height
1492 1494 1497 1500 1502 1501 1497 1487 1481 1483 1486 1489 1490 1492 1494 1499 1504 1513 1514 1512 1512 1513 1515 1517 1519 1521 1523 1524 1526 1528 1529 1530 1531 1532 1534 1535 1536 1537 1537 1538 1539 1540 1541 1542 1542 1543 1544 1544 1545
1492 1494 1498 1499 1500 1502 1493 1483 1483 1484 1487 1490 1492 1494 1496 1502 1506 1508 1510 1511 1512 1513 1515 1517 1519 1521 1523 1525 1526 1528 1529 1531 1532 1533 1534 1535 1536 1537 1538 1539 1540 1541 1542 1543 1543 1544 1545 1546 1547
1492 1494 1498 1496 1495 1495 1488 1481 1484 1486 1488 1491 1494 1497 1500 1505 1507 1508 1509 1510 1512 1513 1515 1517 1519 1521 1523 1525 1527 1528 1530 1531 1532 1534 1535 1536 1537 1538 1539 1540 1541 1542 1543 1543 1544 1545 1546 1547 1548
1493 1496 1496 1495 1492 1486 1483 1483 1484 1486 1490 1492 1495 1499 1502 1506 1507 1508 1509 1510 1511 1513 1515 1517 1519 1521 1523 1525 1527 1529 1530 1531 1533 1534 1535 1536 1538 1538 1539 1540 1541 1542 1543 1544 1545 1546 1547 1548 1549
1492 1494 1494 1493 1490 1484 1482 1483 1485 1486 1489 1493 1495 1498 1503 1506 1506 1507 1508 1510 1511 1513 1515 1517 1519 1521 1523 1525 1527 1528 1530 1531 1533 1534 1535 1537 1538 1539 1540 1541 1542 1543 1544 1545 1546 1546 1547 1548 1549
1493 1490 1493 1492 1487 1483 1482 1483 1484 1486 1489 1492 1495 1498 1503 1505 1505 1507 1508 1510 1511 1513 1514 1516 1518 1521 1522 1524 1526 1528 1530 1531 1533 1534 1535 1537 1538 1539 1540 1541 1542 1543 1544 1545 1546 1547 1548 1549 1550
1491 1488 1488 1485 1485 1483 1482 1483 1485 1486 1489 1493 1494 1498 1502 1504 1504 1506 1508 1510 1511 1513 1514 1516 1518 1520 1522 1524 1526 1527 1529 1531 1532 1534 1535 1536 1538 1539 1540 1541 1542 1543 1544 1545 1546 1547 1548 1549 1550
1488 1487 1484 1482 1483 1482 1482 1483 1485 1487 1490 1493 1494 1497 1501 1503 1504 1505 1507 1509 1511 1512 1514 1515 1517 1519 1521 1523 1525 1527 1528 1530 1532 1533 1535 1536 1537 1538 1539 1541 1542 1543 1544 1545 1546 1547 1548 1549 1550
1487 1489 1485 1481 1480 1481 1482 1483 1486 1488 1491 1493 1495 1497 1499 1501 1502 1504 1506 1508 1510 1511 1513 1514 1516 1518 1520 1522 1524 1526 1527 1529 1531 1532 1534 1535 1537 1538 1539 1540 1541 1543 1544 1545 1546 1547 1548 1549 1550
1485 1487 1482 1480 1479 1480 1482 1484 1486 1489 1491 1493 1496 1497 1498 1500 1502 1503 1505 1506 1508 1510 1512 1513 1515 1517 1519 1521 1523 1524 1526 1528 1530 1531 1533 1535 1536 1537 1538 1539 1541 1542 1543 1544 1545 1546 1548 1549 1550
1481 1482 1481 1481 1481 1482 1483 1485 1486 1488 1491 1492 1494 1495 1497 1499 1501 1503 1504 1506 1507 1509 1510 1512 1514 1516 1517 1519 1521 1523 1525 1527 1529 1530 1532 1533 1535 1536 1537 1538 1539 1541 1542 1543 1544 1546 1547 1548 1549
1480 1480 1480 1482 1482 1483 1484 1485 1487 1488 1491 1491 1492 1493 1495 1498 1500 1501 1503 1505 1506 1508 1509 1511 1512 1514 1516 1517 1519 1521 1523 1525 1527 1529 1531 1532 1533 1534 1535 1537 1538 1539 1541 1542 1543 1544 1546 1547 1548
1479 1480 1481 1482 1483 1484 1485 1486 1487 1488 1489 1490 1491 1493 1494 1496 1498 1500 1502 1504 1505 1506 1508 1509 1511 1512 1514 1516 1518 1519 1521 1523 1525 1527 1529 1530 1532 1533 1534 1535 1537 1538 1540 1541 1542 1543 1544 1546 1547
1478 1479 1480 1481 1482 1484 1485 1486 1487 1485 1487 1489 1490 1492 1494 1495 1497 1498 1500 1501 1503 1504 1506 1507 1509 1511 1512 1514 1516 1517 1519 1521 1523 1525 1527 1528 1530 1531 1532 1534 1535 1537 1538 1539 1541 1542 1543 1545 1546
1478 1479 1479 1479 1480 1483 1485 1486 1484 1483 1486 1487 1489 1491 1493 1494 1495 1496 1497 1499 1501 1503 1504 1506 1507 1509 1511 1512 1514 1516 1517 1519 1521 1523 1525 1527 1528 1529 1530 1532 1533 1535 1537 1538 1539 1541 1542 1543 1545
1478 1479 1480 1476 1478 1480 1486 1484 1480 1481 1483 1485 1487 1489 1491 1492 1494 1495 1496 1498 1499 1501 1502 1504 1505 1507 1509 1510 1512 1514 1515 1517 1519 1521 1523 1524 1526 1527 1528 1530 1532 1533 1535 1536 1537 1539 1540 1542 1543
1479 1479 1476 1476 1475 1477 1482 1481 1479 1479 1480 1483 1485 1487 1488 1490 1492 1493 1494 1496 1497 1499 1500 1501 1503 1505 1507 1508 1510 1512 1513 1515 1517 1518 1520 1522 1523 1525 1526 1528 1529 1531 1532 1534 1535 1536 1538 1539 1541
1478 1476 1472 1473 1473 1476 1479 1479 1479 1479 1479 1481 1483 1485 1486 1488 1490 1491 1492 1494 1495 1497 1499 1500 1501 1503 1505 1506 1508 1509 1511 1513 1514 1516 1518 1519 1521 1522 1524 1525 1527 1528 1530 1531 1532 1534 1536 1537 1538
1473 1473 1473 1472 1472 1475 1476 1476 1477 1477 1477 1479 1480 1482 1484 1486 1488 1489 1491 1492 1493 1495 1497 1498 1499 1500 1502 1504 1505 1506 1508 1510 1511 1513 1515 1516 1518 1519 1521 1522 1524 1525 1526 1528 1530 1531 1533 1534 1536
1474 1475 1475 1474 1474 1476 1476 1476 1473 1473 1474 1476 1478 1480 1482 1484 1486 1487 1488 1489 1491 1492 1494 1496 1497 1498 1500 1501 1503 1505 1506 1507 1509 1511 1512 1514 1515 1516 1518 1519 1521 1522 1523 1525 1526 1528 1529 1531 1533
1475 1477 1477 1478 1477 1476 1478 1477 1471 1470 1471 1474 1476 1478 1480 1482 1483 1485 1486 1487 1488 1490 1491 1493 1494 1496 1497 1499 1501 1502 1503 1505 1506 1507 1508 1510 1512 1513 1514 1516 1517 1519 1520 1521 1523 1525 1526 1527 1530
1477 1475 1476 1477 1481 1481 1478 1483 1470 1468 1470 1472 1475 1477 1479 1480 1482 1483 1484 1485 1486 1487 1489 1490 1492 1493 1495 1496 1497 1498 1499 1501 1502 1504 1505 1507 1508 1510 1511 1512 1514 1515 1516 1518 1519 1521 1523 1524 1526
1477 1476 1476 1477 1479 1482 1478 1483 1474 1468 1471 1473 1474 1476 1478 1479 1480 1481 1482 1483 1484 1485 1486 1488 1489 1490 1491 1493 1494 1495 1497 1498 1499 1501 1502 1503 1505 1506 1507 1509 1510 1511 1513 1514 1516 1517 1519 1520 1522
1477 1477 1477 1478 1480 1487 1477 1480 1473 1470 1469 1471 1473 1475 1477 1478 1479 1480 1481 1482 1483 1484 1484 1485 1486 1487 1488 1489 1491 1492 1493 1494 1495 1497 1498 1499 1500 1502 1503 1505 1506 1507 1508 1510 1512 1513 1515 1516 1518
1479 1483 1486 1486 1487 1481 1472 1475 1474 1470 1469 1470 1472 1474 1476 1477 1479 1479 1480 1481 1481 1481 1482 1482 1483 1484 1485 1486 1487 1488 1490 1491 1492 1493 1494 1495 1496 1497 1499 1501 1501 1503 1504 1505 1507 1509 1510 1512 1513
1479 1481 1487 1487 1479 1473 1477 1475 1473 1470 1471 1471 1473 1474 1476 1477 1478 1479 1479 1480 1480 1480 1480 1480 1480 1481 1481 1482 1483 1485 1486 1487 1488 1489 1490 1491 1492 1493 1495 1496 1497 1498 1499 1501 1502 1503 1505 1507 1508
1479 1481 1479 1483 1480 1481 1471 1470 1472 1471 1472 1473 1474 1475 1476 1477 1478 1478 1478 1478 1478 1478 1478 1478 1478 1478 1478 1479 1480 1480 1482 1483 1483 1484 1485 1486 1487 1488 1490 1490 1492 1493 1494 1495 1496 1498 1499 1501 1502
1480 1480 1484 1486 1485 1479 1466 1465 1470 1473 1473 1474 1475 1475 1476 1477 1477 1477 1477 1477 1477 1476 1476 1476 1476 1476 1476 1476 1476 1477 1477 1478 1479 1480 1480 1481 1482 1483 1484 1485 1486 1487 1488 1489 1490 1492 1493 1495 1496
1481 1483 1482 1482 1479 1479 1474 1471 1470 1470 1472 1474 1475 1476 1476 1477 1477 1476 1476 1476 1475 1474 1474 1473 1473 1473 1472 1472 1473 1473 1473 1474 1474 1475 1475 1476 1477 1478 1478 1479 1480 1481 1482 1483 1484 1486 1487 1488 1489
1479 1479 1482 1486 1482 1477 1476 1477 1473 1472 1472 1474 1475 1476 1476 1476 1476 1475 1475 1474 1473 1472 1471 1471 1470 1470 1469 1469 1469 1469 1469 1469 1469 1470 1470 1471 1471 1472 1472 1473 1474 1475 1476 1477 1478 1479 1480 1481 1482